[[{"header":{"parameterUnit":"m.s-1","parameterCategory":1,"la1":30.2991,"la2":30.254,"lo1":-89.0895,"lo2":-89.0444,"dy":0.0017,"dx":0.0017,"nx":28,"ny":28,"refTime":"2023-09-01T03:00:00:Z","depth":0,"parameterNumber":2,"parameterNumberName":"U-component_of_WINDS"},"data":[0,0,0,0,0,0,0,0,0,0,0,0,0,0,0,0,0,0,0,0,0,0,0,0,0,0,0,0,0,0,0,0,0,0,0,0,0,0,0,0,0,0,0,0,0,0,0,0,0,0,0,0,0,0,0,0,0,0,-2.3166,-2.3166,0,-2.3138,-2.3137,-2.3137,-2.3094,-2.3094,-2.3093,-2.3092,-2.3064,-2.3064,-2.3064,0,0,0,0,0,0,0,0,0,0,0,0,0,-2.3183,-2.3183,-2.3166,-2.3165,-2.3165,-2.3138,-2.3137,-2.3137,-2.3094,-2.3094,-2.3093,-2.3092,-2.3064,-2.3064,-2.3064,0,0,0,0,0,0,0,0,0,0,0,0,0,-2.3167,-2.3183,-2.3166,-2.3141,-2.3138,-2.3138,-2.3137,-2.3137,-2.3095,-2.3093,-2.3092,-2.3091,-2.3064,-2.3064,-2.3064,-2.3086,0,0,-2.3064,-2.3064,0,0,0,0,0,0,0,0,-2.3168,-2.3167,-2.3145,-2.3142,-2.3139,-2.3118,-2.3133,-2.312,-2.3095,-2.3111,-2.3092,-2.3091,-2.3083,-2.3081,-2.3079,-2.3085,-2.3084,-2.3064,-2.3064,-2.3064,-2.3064,0,0,0,0,0,0,0,-2.3169,-2.3168,-2.3155,-2.3144,-2.3141,-2.3131,-2.3127,-2.313,-2.3104,-2.311,-2.3106,-2.3104,-2.3081,-2.3079,-2.3078,-2.3083,-2.3064,-2.3064,-2.3064,-2.3064,-2.3106,-2.3107,0,0,0,0,0,0,-2.3174,-2.3169,-2.3156,-2.3154,-2.3151,-2.3131,-2.3127,-2.3126,-2.3104,-2.3099,-2.3105,-2.3102,-2.3079,-2.3078,-2.3076,-2.31,-2.3064,-2.3064,-2.3064,-2.3105,-2.3106,-2.3107,0,0,0,0,0,0,-2.3175,-2.3173,-2.3157,-2.316,-2.3158,-2.3132,-2.3131,-2.3126,-2.3124,-2.31,-2.3095,-2.3107,-2.3078,-2.3077,-2.3084,-2.3099,-2.3064,-2.3063,-2.3103,-2.3105,-2.3107,-2.3149,0,0,0,0,0,0,-2.3175,-2.3174,-2.3182,-2.3161,-2.3158,-2.3165,-2.3132,-2.3127,-2.3124,-2.3119,-2.3101,-2.3096,-2.3077,-2.3084,-2.3084,-2.3098,-2.3063,-2.3102,-2.3104,-2.3106,-2.3146,-2.3152,-2.3156,0,0,0,0,0,-2.3176,-2.3195,-2.3183,-2.3181,-2.3167,-2.3166,-2.3164,-2.3141,-2.3125,-2.3133,-2.3118,-2.3097,-2.3097,-2.3085,-2.3085,-2.3099,-2.3101,-2.3104,-2.3106,-2.3143,-2.315,-2.3156,0,0,0,0,0,0,-2.3219,-2.3192,-2.3178,-2.3191,-2.3181,-2.3158,-2.3168,-2.315,-2.3144,-2.3141,-2.3113,-2.3109,-2.312,-2.311,-2.3097,-2.3119,-2.3096,-2.3099,-2.3125,-2.3131,-2.3136,-2.3138,-2.3063,0,0,0,0,0,-2.323,-2.3231,-2.3207,-2.3221,-2.3217,-2.3193,-2.3192,-2.3175,-2.3164,-2.316,-2.3145,-2.3135,-2.3132,-2.3131,-2.3128,-2.3145,-2.3139,-2.3154,-2.3159,-2.3164,-2.3166,-2.3173,-2.3179,-2.3116,-2.3116,-2.3116,0,0,-2.3252,-2.3238,-2.324,-2.3229,-2.3219,-2.3221,-2.319,-2.3193,-2.3193,-2.316,-2.3165,-2.3155,-2.3142,-2.3153,-2.3158,-2.3146,-2.3182,-2.3167,-2.3171,-2.3171,-2.3176,-2.3182,-2.3187,-2.3118,-2.3117,-2.3117,0,0,-2.3294,-2.3283,-2.3293,-2.3284,-2.327,-2.3254,-2.3256,-2.3237,-2.3228,-2.3233,-2.3208,-2.3209,-2.3206,-2.3197,-2.3192,-2.323,-2.3211,-2.323,-2.3258,-2.3264,-2.3269,-2.3274,-2.3286,-2.3291,-2.3233,-2.3233,-2.3233,0,-2.3324,-2.3324,-2.33,-2.3304,-2.33,-2.327,-2.3279,-2.3272,-2.3257,-2.3255,-2.3242,-2.3237,-2.3226,-2.3234,-2.3244,-2.3241,-2.3243,-2.3231,-2.3271,-2.3275,-2.3278,-2.329,-2.3294,-2.3235,-2.3235,-2.3234,-2.3234,0,-2.3361,-2.3362,-2.3372,-2.3358,-2.3355,-2.3362,-2.3339,-2.3339,-2.3323,-2.3308,-2.3314,-2.33,-2.3292,-2.3294,-2.3278,-2.33,-2.3293,-2.3276,-2.3252,-2.3287,-2.3297,-2.3301,-2.3238,-2.3237,-2.3237,-2.3236,0,0,-2.3427,-2.34,-2.3404,-2.3397,-2.3379,-2.338,-2.3385,-2.3378,-2.3378,-2.3369,-2.3372,-2.337,-2.3354,-2.3349,-2.3332,-2.3339,-2.3368,-2.332,-2.332,-2.3329,-2.339,-2.3402,-2.3407,-2.3356,-2.3357,-2.3357,-2.339,0,-2.3464,-2.3471,-2.345,-2.3463,-2.3463,-2.3434,-2.3439,-2.3429,-2.3416,-2.3414,-2.34,-2.3398,-2.3377,-2.3374,-2.3379,-2.3364,-2.338,-2.3361,-2.3358,-2.3358,-2.336,-2.3413,-2.3425,-2.3457,-2.3394,-2.3395,-2.3395,0,-2.3508,-2.3501,-2.3513,-2.3494,-2.3493,-2.3498,-2.3489,-2.3488,-2.3475,-2.3465,-2.3459,-2.344,-2.3444,-2.3422,-2.3426,-2.3414,-2.3411,-2.3404,-2.3404,-2.3402,-2.3378,-2.341,-2.3467,-2.3471,-2.3402,-2.3401,-2.3401,0,-2.3553,-2.3547,-2.3553,-2.3549,-2.3527,-2.353,-2.3521,-2.3508,-2.3505,-2.3497,-2.3495,-2.3488,-2.3484,-2.3479,-2.3459,-2.3445,-2.3465,-2.3442,-2.3456,-2.3456,-2.346,-2.346,-2.3516,-2.3461,-2.3461,-2.3461,-2.3461,0,-2.3595,-2.3604,-2.3573,-2.3577,-2.3586,-2.3561,-2.357,-2.3559,-2.3547,-2.3548,-2.3523,-2.3525,-2.3498,-2.3496,-2.348,-2.3486,-2.3484,-2.3476,-2.3471,-2.3477,-2.3478,-2.3474,-2.3471,-2.3462,-2.3462,-2.3462,-2.3462,0,-2.3647,-2.3627,-2.3632,-2.3611,-2.3606,-2.3613,-2.3595,-2.3597,-2.3583,-2.3584,-2.3583,-2.356,-2.3557,-2.3536,-2.3528,-2.3518,-2.3528,-2.352,-2.3532,-2.3529,-2.3544,-2.3542,-2.3598,-2.3603,-2.3547,-2.3547,-2.3548,0,-2.3674,-2.368,-2.366,-2.3658,-2.365,-2.3649,-2.3645,-2.3622,-2.3619,-2.3605,-2.3609,-2.3604,-2.3598,-2.3594,-2.3577,-2.3571,-2.3561,-2.3581,-2.356,-2.3565,-2.3559,-2.3559,-2.3559,-2.3585,-2.3586,-2.3586,-2.3587,0,-2.3725,-2.3714,-2.371,-2.3703,-2.3699,-2.3692,-2.3683,-2.3684,-2.3658,-2.3656,-2.3652,-2.3648,-2.364,-2.3634,-2.3625,-2.3615,-2.3597,-2.3594,-2.3597,-2.3602,-2.3608,-2.3604,-2.3543,-2.3592,-2.3592,-2.3592,-2.3591,-2.3591,-2.3764,-2.3767,-2.3753,-2.3749,-2.374,-2.3733,-2.3734,-2.372,-2.3716,-2.3707,-2.3694,-2.3692,-2.3678,-2.3664,-2.3656,-2.3654,-2.3643,-2.3647,-2.3648,-2.3649,-2.3651,-2.361,-2.3652,-2.3652,-2.3652,-2.3652,-2.3651,0,-2.3812,-2.3801,-2.3798,-2.3787,-2.3783,-2.3767,-2.3756,-2.3754,-2.3753,-2.3742,-2.3737,-2.3732,-2.3727,-2.3709,-2.3702,-2.3704,-2.3695,-2.3702,-2.3701,-2.3699,-2.3662,-2.366,-2.3709,-2.3709,-2.3709,-2.3709,-2.3709,-2.3709,-2.3836,-2.3841,-2.3829,-2.3829,-2.3818,-2.3816,-2.3811,-2.3804,-2.3795,-2.3791,-2.3786,-2.3775,-2.3761,-2.3753,-2.3747,-2.3742,-2.374,-2.375,-2.3742,-2.3707,-2.3702,-2.3696,-2.3694,-2.375,-2.375,-2.3778,-2.3779,-2.3779]},{"header":{"parameterUnit":"m.s-1","parameterCategory":1,"la1":30.2991,"la2":30.254,"lo1":-89.0895,"lo2":-89.0444,"dy":0.0017,"dx":0.0017,"nx":28,"ny":28,"refTime":"2023-09-01T03:00:00:Z","depth":0,"parameterNumber":3,"parameterNumberName":"V-component_of_WINDS"},"data":[0,0,0,0,0,0,0,0,0,0,0,0,0,0,0,0,0,0,0,0,0,0,0,0,0,0,0,0,0,0,0,0,0,0,0,0,0,0,0,0,0,0,0,0,0,0,0,0,0,0,0,0,0,0,0,0,0,0,1.1995,1.1995,0,1.2015,1.2016,1.2016,1.2055,1.2056,1.2056,1.2057,1.2077,1.2077,1.2076,0,0,0,0,0,0,0,0,0,0,0,0,0,1.1989,1.1988,1.1995,1.1995,1.1995,1.2015,1.2016,1.2016,1.2055,1.2056,1.2057,1.2057,1.2077,1.2077,1.2076,0,0,0,0,0,0,0,0,0,0,0,0,0,1.1998,1.1988,1.1995,1.2017,1.2019,1.2015,1.2016,1.2016,1.2054,1.2056,1.2057,1.2058,1.2077,1.2077,1.2076,1.2052,0,0,1.2076,1.2075,0,0,0,0,0,0,0,0,1.1998,1.1999,1.2013,1.2015,1.2018,1.2034,1.2021,1.2028,1.2054,1.2041,1.2057,1.2058,1.2061,1.2062,1.2064,1.2053,1.2054,1.2075,1.2075,1.2075,1.2075,0,0,0,0,0,0,0,1.1997,1.1998,1.2003,1.2014,1.2016,1.2026,1.2029,1.2022,1.2044,1.2042,1.2045,1.2047,1.2063,1.2064,1.2065,1.2054,1.2075,1.2075,1.2075,1.2075,1.2025,1.2024,0,0,0,0,0,0,1.1993,1.1997,1.2002,1.2003,1.201,1.2025,1.2028,1.2027,1.2045,1.2048,1.2046,1.2049,1.2064,1.2065,1.2065,1.2039,1.2075,1.2075,1.2075,1.2026,1.2025,1.2024,0,0,0,0,0,0,1.1993,1.1993,1.2001,1.2001,1.2003,1.2024,1.2023,1.2027,1.2028,1.2048,1.2052,1.2043,1.2065,1.2066,1.2055,1.204,1.2075,1.2075,1.2028,1.2026,1.2024,1.1984,0,0,0,0,0,0,1.1993,1.1993,1.1984,1.2001,1.2003,1.1991,1.2022,1.2027,1.2028,1.2032,1.2046,1.2049,1.2066,1.2056,1.2055,1.204,1.2074,1.2029,1.2027,1.2025,1.1987,1.1981,1.1976,0,0,0,0,0,1.1992,1.1971,1.1983,1.1983,1.1992,1.199,1.1991,1.2011,1.2027,1.2018,1.203,1.2049,1.2042,1.2054,1.2054,1.2038,1.203,1.2028,1.2025,1.1989,1.1982,1.1976,0,0,0,0,0,0,1.195,1.1973,1.1987,1.1971,1.1978,1.1996,1.1985,1.2002,1.2005,1.2008,1.2032,1.2035,1.2022,1.2029,1.2043,1.2017,1.2039,1.2036,1.2012,1.2005,1.2,1.1998,1.2074,0,0,0,0,0,1.1939,1.1936,1.1956,1.194,1.1943,1.1963,1.1963,1.1978,1.1987,1.199,1.2002,1.2009,1.2009,1.2007,1.2008,1.1989,1.1993,1.1978,1.1973,1.1968,1.1965,1.1957,1.1951,1.2015,1.2015,1.2015,0,0,1.1916,1.1928,1.1925,1.1932,1.1939,1.1935,1.1966,1.196,1.1958,1.1989,1.198,1.1989,1.1999,1.1984,1.1978,1.199,1.1949,1.1965,1.1961,1.1961,1.1954,1.1947,1.1942,1.2014,1.2014,1.2014,0,0,1.1872,1.1881,1.1869,1.1876,1.1888,1.1902,1.1899,1.1915,1.1922,1.1914,1.1938,1.1936,1.1934,1.194,1.1943,1.1904,1.1922,1.1904,1.1876,1.1867,1.1862,1.1857,1.1844,1.1839,1.1901,1.1901,1.1901,0,1.1842,1.1837,1.186,1.1853,1.1856,1.1886,1.1873,1.1879,1.189,1.1891,1.1905,1.1905,1.1913,1.1901,1.1891,1.1893,1.1891,1.1901,1.1861,1.1857,1.1853,1.184,1.1835,1.1898,1.1899,1.1899,1.1899,0,1.1799,1.1796,1.1785,1.1795,1.1797,1.1788,1.1809,1.1808,1.1823,1.1836,1.1828,1.184,1.1844,1.1842,1.1856,1.1832,1.184,1.1856,1.188,1.1844,1.1833,1.1828,1.1895,1.1896,1.1897,1.1897,0,0,1.1728,1.1753,1.1748,1.1754,1.177,1.1768,1.176,1.1765,1.1764,1.1771,1.1765,1.1764,1.1781,1.1784,1.18,1.1792,1.1761,1.1811,1.1811,1.1801,1.1737,1.1723,1.1717,1.1774,1.1773,1.1772,1.1736,0,1.1687,1.1675,1.1697,1.168,1.1678,1.1707,1.1701,1.171,1.1722,1.1722,1.1736,1.1735,1.1756,1.1759,1.1753,1.1766,1.1749,1.1769,1.1769,1.1769,1.1765,1.1711,1.1697,1.1662,1.1731,1.1731,1.173,0,1.1637,1.1643,1.1626,1.1645,1.1644,1.1638,1.1645,1.1645,1.1656,1.1666,1.1671,1.169,1.1684,1.1707,1.17,1.1714,1.1715,1.1722,1.1722,1.1722,1.1747,1.171,1.1651,1.1646,1.1723,1.1724,1.1724,0,1.1586,1.159,1.1581,1.1585,1.1606,1.1602,1.161,1.1623,1.1625,1.1631,1.1633,1.1638,1.1641,1.1645,1.1665,1.168,1.1656,1.168,1.1664,1.1663,1.1657,1.1657,1.1597,1.1658,1.1658,1.1658,1.1658,0,1.1538,1.1527,1.1559,1.1553,1.1542,1.1567,1.1556,1.1567,1.1579,1.1576,1.1601,1.1598,1.1626,1.1626,1.1642,1.1634,1.1635,1.1643,1.1647,1.164,1.1639,1.1641,1.1644,1.1657,1.1657,1.1657,1.1658,0,1.1479,1.15,1.1493,1.1514,1.1519,1.151,1.1528,1.1524,1.1539,1.1536,1.1536,1.1559,1.1561,1.1582,1.1588,1.1599,1.1585,1.1594,1.1581,1.1584,1.1567,1.1568,1.1506,1.15,1.1564,1.1563,1.1563,0,1.1447,1.1439,1.146,1.1461,1.1469,1.1469,1.1472,1.1497,1.1498,1.1512,1.1507,1.1511,1.1515,1.1517,1.1534,1.154,1.1549,1.1527,1.155,1.1544,1.1549,1.1549,1.1549,1.1522,1.1521,1.152,1.152,0,1.1387,1.1399,1.1402,1.1409,1.1412,1.1418,1.1427,1.1426,1.1454,1.1454,1.1457,1.1461,1.1468,1.1472,1.1481,1.149,1.1509,1.1513,1.1509,1.1502,1.1495,1.1499,1.1568,1.1514,1.1514,1.1515,1.1515,1.1515,1.1341,1.1336,1.135,1.1354,1.1363,1.1371,1.1368,1.1384,1.1386,1.1394,1.1409,1.141,1.1424,1.1438,1.1445,1.1447,1.1458,1.1453,1.1452,1.145,1.1447,1.1495,1.1448,1.1448,1.1449,1.1449,1.1449,0,1.1283,1.1294,1.1297,1.1308,1.1311,1.133,1.1341,1.1342,1.1343,1.1354,1.1358,1.1362,1.1367,1.1385,1.1392,1.139,1.1399,1.1391,1.1391,1.1393,1.1436,1.1438,1.1383,1.1383,1.1383,1.1383,1.1383,1.1383,1.1253,1.1246,1.1259,1.1257,1.1269,1.127,1.1275,1.1283,1.1292,1.1295,1.13,1.1312,1.1327,1.1335,1.134,1.1346,1.1347,1.1336,1.1344,1.1384,1.139,1.1396,1.1398,1.1336,1.1336,1.1302,1.1302,1.1301]}]]